Regional Weather Roundup
Issued by NWS

Home | Current Version | Previous Version | Text Only | Print | Product List | Glossary Off
Versions: 1 2 3 4 5 6 7 8 9 10 11 12 13 14 15 16 17 18 19 20 21 22 23 24 25 26 27 28 29 30 31 32 33 34 35 36 37 38 39 40 41 42 43 44 45 46 47 48 49 50

000
ASUS43 KFSD 271510
RWRSD

WEATHER ROUNDUP FOR SOUTH DAKOTA
NATIONAL WEATHER SERVICE SIOUX FALLS SD
1000 AM CDT FRI MAR 27 2015

NOTE: "FAIR" INDICATES FEW OR NO CLOUDS BELOW 12,000 FEET WITH NO
SIGNIFICANT WEATHER AND/OR OBSTRUCTIONS TO VISIBILITY.


SDZ001>005-009-010-012>017-271600-
NORTHWEST AND NORTH CENTRAL SOUTH DAKOTA

CITY           SKY/WX    TMP DP  RH WIND       PRES   REMARKS
BUFFALO          N/A     38  33  82 SW6       29.91F
FAITH            N/A     34  29  82 S24       29.99F WCI  21
MOBRIDGE       LGT SNOW  27  21  78 S16       30.09F WCI  15
$$

SDZ012>016-024>037-041>051-057-063-072>074-271600-
SOUTHWEST AND SOUTH CENTRAL SOUTH DAKOTA

CITY           SKY/WX    TMP DP  RH WIND       PRES   REMARKS
RAPID CTY ARPT MOSUNNY   39  33  79 S3        30.01F
PIERRE         CLOUDY    29  21  72 SE14      30.12F WCI  18
CUSTER         PTSUNNY   46  35  65 W6        30.05S
ELLSWORTH AFB  PTSUNNY   40  34  79 S5        30.00F
PHILIP         PTSUNNY   39  30  70 S9        30.05F
PINE RIDGE     CLOUDY    47  39  74 W10       30.05F
SPEARFISH      FAIR      52  36  54 W17G24    30.04S
WINNER         CLOUDY    34  25  69 S10G20    30.14F WCI  26
$$

SDZ004>011-016>023-039-040-271600-
NORTHEAST SOUTH DAKOTA

CITY           SKY/WX    TMP DP  RH WIND       PRES   REMARKS
ABERDEEN       CLOUDY    26  15  63 S14       30.21F WCI  14
WATERTOWN      CLOUDY    23  15  71 S9        30.20F WCI  13
SISSETON         N/A     25  15  66 S8        30.23F WCI  16
$$

SDZ017-020-022-023-036>040-048>070-271600-
SOUTHEAST SOUTH DAKOTA

CITY           SKY/WX    TMP DP  RH WIND       PRES   REMARKS
SIOUX FALLS    CLOUDY    25  15  66 CALM      30.26F
HURON          CLOUDY    25  15  66 S10       30.23F WCI  15
CHAMBERLAIN    CLOUDY    28  19  70 SE12      30.18F WCI  18
MITCHELL       PTSUNNY   26  16  65 S9        30.26F WCI  17
YANKTON        SUNNY     25  12  58 CALM      30.29S
$$

ABBREVIATIONS USED IN REMARKS
   TC - TEMPERATURE IN CELSIUS
  WCI - WIND CHILL INDEX
   HX - HEAT INDEX
  VSB - VISIBILITY



USA.gov is the U.S. government's official web portal to all federal, state and local government web resources and services.